OPS 4682 DEB, 38411

Orbit data source: Space-Track

OPS 4682 DEB, 38411 is space debris in LEO originally from a launch on Sat, 03 Apr 1965 UTC launched from the Air Force Western Test Range (AFWTR). Debris objects in space refer to the collection of defunct objects orbiting the Earth. Examples of debris include non-operational satellites, rocket bodies, and fragments generated from explosions, collisions, or faulty payload assembly.

Loading next visibility...
Identifier
38411, 1965-027DQ
Orbit
LEO
Country
Flag of USUS
Related business
Manufacturer
Unknown
Mission
Spacecraft
Bus & Motor
Unknown
Mass
Unknown
Launch date (UTC)
1965-04-03 (61 years ago)
Launch vehicle
Unknown
Launch site
Air Force Western Test Range (AFWTR)
Object type
Payload
Rocket body
Debris
Shape & HBR
Unknown shape, 0.1 m
Radar Cross Section
Small (<0.1 m²)

Expand to show TLE details & history
Last TLE update: 2 days ago

TLE from 2 days ago
0 OPS 4682 DEB
1 38411U 65027DQ  26102.99550842 -.00000139  00000-0 -50716-3 0  9997
2 38411  90.2571  14.5782 0036820 265.4781  94.2133 12.96879916654423
Epoch: 2026-04-12T23:53Z
TLE epoch observation values (Epoch: 2026-04-12T23:53:31.927Z)
Latitude
-0°
Longitude
175.00271°
Altitude
1,279.388 km
Speed
7.215 km/s
True Right ascension
00h 58m 18s
True Declination
0° 00' 00"
Sunlit
Object was in daylight at epoch
Visualization orbit readout
Latitude
Unknown
Longitude
Unknown
Altitude
Unknown
Speed
Unknown
Apparent Right ascension
Unknown
Apparent Declination
Unknown
Sunlit
N/A
Visualization observer readout
Local Sidereal Time
18:49:01
Azimuth
Unknown
Elevation
Unknown
Doppler factor
Unknown
Orbital elements
Apogee altitude
1,299.633 km
Perigee altitude
1,243.302 km
Semi-major axis
7,649.604 km
Eccentricity
0.00368
Inclination
90.2571°
RAAN
14.5782°
Arg. of periapsis
265.4781°
True anomaly
94.63394°
Mean anomaly
94.2133°
Eccentric anomaly
94.42363°
Mean motion
3.24403 °/min
Orbital period
110.97 mins
BSTAR
-0.00050716
Loading maneuver chart data...
Computing Atmospheric mass density...
Loading historical data...
Loading historical data...
Loading historical data...
Loading historical data...
Loading historical data...
Loading historical data...
Loading historical data...

Documentation

Showing up to 5 results
|